EHI
0 0 1 2 3 4 5 6 10 12 8 5 4 3 3 4 7 12 14 12 8 7 7 6 5 3 2 1 0 0 0 0 0 0 1 2 3 2 2 2 1 2 2
0 0 0 1 2 3 4 6 11 12 8 5 3 3 3 2 4 7 10 9 7 5 5 5 4 3 2 2 0 0 0 0 0 0 1 2 2 1 1 1 0 1 1
0 0 0 0 0 1 1 4 10 11 8 4 2 1 1 0 0 2 4 4 3 2 2 3 3 2 3 2 0 0 0 0 0 0 0 1 1 0 0 0 0 0 0
0 0 0 0 0 0 0 2 5 7 6 3 0 0 0 0 0 0 1 1 1 0 1 1 1 1 3 2 1 0 0 0 0 0 0 0 0 0 0 0 0 0 0
0 0 0 0 0 0 0 0 1 2 2 1 0 0 0 0 0 0 0 0 0 0 0 0 0 0 1 2 1 0 0 0 0 0 0 0 0 0 0 0 0 0 0
0 0 0 0 0 0 0 0 0 0 0 0 0 0 0 0 0 0 0 0 0 0 0 0 0 0 0 0 1 1 0 0 0 0 0 0 0 0 0 0 0 0 0
0 0 0 0 0 0 0 0 0 0 0 0 0 0 0 0 0 0 0 0 0 0 0 0 0 0 0 0 0 0 0 0 0 0 0 0 0 0 1 1 0 0 0
0 0 0 0 0 0 0 0 0 0 0 0 0 0 0 0 0 0 0 0 0 0 0 0 0 0 0 0 0 0 0 0 0 0 0 0 0 0 2 2 1 0 0
0 0 0 0 0 0 0 0 0 0 0 0 0 0 0 0 0 0 0 0 0 0 0 0 0 0 0 0 0 0 0 0 0 0 1 1 1 1 2 3 2 0 0
0 0 0 0 0 0 0 0 0 0 0 0 0 0 0 0 0 0 0 0 0 0 0 0 0 0 0 0 0 0 0 0 0 0 1 1 1 1 1 1 1 0 0
0 0 0 0 0 0 0 0 0 0 0 0 0 0 0 0 0 0 0 0 0 0 0 0 0 0 0 0 0 0 0 0 0 0 0 0 0 0 0 0 0 0 1
0 0 0 0 0 0 0 0 0 0 0 0 0 0 0 0 0 0 0 0 0 0 0 0 0 0 0 0 0 0 0 0 0 0 0 0 0 0 0 1 1 1 1
0 0 0 0 0 0 0 0 0 0 0 0 0 0 0 0 0 0 0 0 0 0 0 0 0 0 0 0 0 0 0 0 0 0 0 0 0 0 0 1 1 1 1
0 0 0 0 0 0 0 0 0 0 0 0 0 0 0 0 0 0 0 0 0 0 0 0 0 0 0 0 0 0 0 0 0 0 0 0 0 0 0 0 0 0 0
0 0 0 0 0 0 0 0 0 0 0 0 0 0 0 0 0 0 0 0 0 0 0 0 0 0 0 0 0 0 0 0 0 0 0 0 0 0 0 0 0 0 0
0 0 0 0 0 0 0 0 0 0 0 0 0 0 0 0 0 0 0 0 0 0 0 0 0 0 0 0 0 0 0 0 0 0 0 0 0 0 0 0 0 0 0
0 0 0 0 0 0 0 0 0 0 0 0 0 0 0 0 0 0 0 0 0 0 0 0 0 0 0 0 0 0 0 0 0 0 0 0 0 0 0 0 0 0 0
0 0 0 0 0 0 0 0 0 0 0 0 0 0 0 0 0 0 0 0 0 0 0 0 0 0 0 0 0 0 0 0 0 0 0 0 0 0 0 0 0 0 0
0 0 0 0 0 0 0 0 0 0 0 0 0 0 0 0 0 0 0 0 0 0 0 0 0 0 0 0 0 0 0 0 0 0 0 0 0 0 0 0 0 0 0
0 0 0 0 0 0 0 0 0 0 0 0 0 0 0 0 0 0 0 0 0 0 0 0 0 0 0 0 0 0 0 0 0 0 0 0 0 0 0 0 0 0 0
0 0 0 0 0 0 0 0 0 0 0 0 0 0 0 0 0 0 0 0 0 0 0 0 0 0 0 0 0 0 0 0 0 0 0 0 0 0 0 0 0 0 0
0 0 0 0 0 0 0 0 0 0 0 0 0 0 0 0 0 0 0 0 0 0 0 0 0 0 0 0 0 0 0 0 0 0 0 0 0 0 0 0 0 0 0
0 0 0 0 0 0 0 0 0 0 0 0 0 0 0 0 0 0 0 0 0 0 0 0 0 0 0 0 0 0 0 0 0 0 0 0 0 0 0 0 0 0 0
0 0 0 0 0 0 0 0 0 0 0 0 0 0 0 0 0 0 0 0 0 0 0 0 0 0 0 0 0 0 0 0 0 0 0 0 0 0 0 0 0 0 0
0 0 0 0 0 0 0 0 0 0 0 0 0 0 0 0 0 0 0 0 0 0 0 0 0 0 0 0 0 0 0 0 0 0 0 0 0 0 0 0 0 0 0
0 0 0 0 0 0 0 0 0 0 0 0 0 0 0 0 0 0 0 0 0 0 0 0 0 0 0 0 0 0 0 0 0 0 0 0 0 0 0 0 0 0 0
Wind_Speed
9 7 6 6 6 4 4 3 4 4 4 4 6 6 5 5 5 3 2 3 4 4 3 3 2 2 2 2 3 3 4 4 4 4 5 5 7 8 7 7 7 10 12
8 6 4 4 4 4 3 3 5 6 6 5 6 5 6 6 5 3 3 3 4 4 5 3 3 3 2 3 2 2 2 2 3 3 3 3 4 6 9 8 8 9 9
6 4 2 2 3 4 4 5 4 5 6 7 6 7 6 6 5 5 4 3 5 5 4 4 3 3 3 3 3 2 2 2 2 3 3 2 3 3 5 8 7 7 5
4 2 1 3 5 6 5 4 4 4 5 6 7 10 9 8 8 6 6 7 7 6 4 3 3 3 3 3 4 4 2 2 3 3 3 4 1 2 0 3 5 6 5
2 0 2 3 5 6 6 4 3 3 4 5 7 8 8 8 8 8 9 8 7 7 5 2 1 3 3 3 3 3 3 2 3 3 3 4 4 4 2 2 3 4 5
2 2 3 3 3 5 5 5 4 4 4 5 6 7 8 8 10 10 10 7 5 4 5 3 0 2 3 3 3 3 4 4 5 4 3 3 4 4 3 3 3 5 5
2 3 4 5 5 5 5 5 5 5 5 5 5 5 7 8 10 10 8 8 7 6 6 6 2 2 2 3 3 3 3 3 5 6 5 4 4 5 3 2 2 3 3
4 6 7 7 6 7 6 6 5 5 5 5 5 5 7 7 6 8 9 9 8 7 7 6 5 4 4 4 3 2 3 2 2 4 5 4 4 4 3 2 1 1 2
7 9 9 9 8 7 6 6 5 5 5 6 6 6 5 6 8 8 9 8 7 9 9 9 8 6 6 5 4 3 4 3 3 3 3 3 4 4 4 4 2 2 3
9 11 10 10 9 8 6 6 6 6 6 6 6 8 7 6 6 8 8 8 8 8 8 9 8 8 7 7 6 5 5 5 4 3 3 3 2 3 3 4 3 2 2
11 10 9 9 9 10 9 8 7 7 6 6 6 6 7 7 7 7 7 7 7 8 8 9 9 9 9 8 7 7 7 7 6 6 5 5 4 3 3 3 3 3 2
9 10 10 9 9 10 10 9 9 9 7 7 6 7 7 7 8 8 7 7 7 8 9 9 9 10 10 9 8 9 10 9 8 7 7 7 5 5 3 3 3 3 3
9 9 9 9 9 9 10 10 10 10 10 8 8 8 9 8 8 8 8 8 8 8 9 9 9 9 9 10 10 9 9 10 9 8 8 8 8 7 5 4 3 3 3
8 9 8 7 8 8 8 9 10 9 10 9 9 9 9 9 9 9 9 8 9 9 9 9 9 9 10 10 10 11 10 10 10 9 8 8 9 8 8 6 5 4 3
9 9 8 7 7 7 8 8 9 8 8 9 10 10 9 9 9 9 9 9 9 11 10 9 10 10 10 11 10 9 12 10 10 10 9 9 10 11 9 8 7 6 4
10 11 10 10 9 8 8 9 8 8 8 9 10 10 10 10 10 10 10 10 10 10 10 10 11 11 12 13 11 9 8 9 9 9 9 10 10 12 13 13 12 11 9
10 11 11 9 8 8 7 8 8 8 9 10 10 10 11 12 12 13 12 11 11 11 10 11 11 11 11 14 15 14 10 10 9 9 9 12 12 13 11 12 13 12 12
10 10 11 11 10 9 9 8 9 9 10 11 11 11 11 12 12 12 13 12 10 10 10 10 11 11 12 14 14 15 13 11 10 10 9 10 9 9 10 11 11 10 10
9 9 10 12 11 10 9 10 10 10 11 11 11 12 12 13 14 14 13 12 10 10 10 10 10 11 11 13 14 13 10 9 10 10 10 11 10 11 11 10 10 9 8
8 9 10 11 10 9 9 10 11 11 11 11 12 13 13 14 14 14 13 11 10 10 10 10 10 10 10 11 12 12 8 8 7 7 9 12 11 11 12 9 9 9 8
9 9 10 10 9 9 9 10 10 10 11 11 12 13 13 14 14 13 10 10 10 10 10 10 9 9 9 9 10 11 7 6 6 6 6 6 10 12 13 10 7 8 7
9 10 9 9 8 8 9 10 10 10 11 11 13 14 14 14 13 12 11 10 9 9 9 8 8 6 5 5 5 7 8 5 4 4 3 3 9 12 12 9 6 8 7
9 9 10 10 9 8 9 10 10 11 11 12 13 14 15 13 13 11 11 9 7 6 7 6 6 5 4 2 3 4 5 4 1 0 1 2 7 9 8 9 9 8 5
8 9 10 11 10 9 9 9 10 10 11 12 13 13 13 13 12 9 8 7 6 6 6 6 5 4 4 3 1 3 4 5 4 3 3 5 5 5 5 7 7 6 5
7 8 9 10 11 10 10 10 10 10 12 13 12 13 12 12 11 9 7 8 5 4 5 6 5 4 3 4 5 3 1 1 1 3 4 4 5 5 5 5 6 6 6
7 8 9 10 11 10 10 9 9 10 11 11 11 10 10 10 9 9 9 7 6 5 5 4 4 3 1 2 3 3 4 4 2 2 4 5 5 6 7 7 7 7 7
Wind_Direction
111 108 104 99 97 85 69 53 25 23 350 2 339 326 325 329 315 307 2 343 327 325 299 300 296 263 254 266 278 261 246 236 229 236 249 239 219 209 208 209 213 217 220
127 124 119 97 84 76 48 31 27 11 356 360 319 307 328 318 302 326 344 336 339 326 313 298 286 264 254 263 277 267 238 239 223 217 227 232 224 217 210 201 206 214 213
132 121 82 49 36 36 24 29 30 17 11 351 330 339 329 314 320 333 321 345 338 315 308 303 293 280 260 252 244 247 247 252 266 234 226 234 235 219 200 198 199 198 206
149 147 333 8 9 10 8 27 31 35 15 355 340 334 322 321 328 327 327 332 319 301 292 298 311 296 279 261 242 223 212 244 266 281 263 265 286 291 278 197 191 184 194
184 229 321 348 2 359 355 357 14 23 7 351 334 329 323 326 322 322 312 306 296 285 282 276 317 320 303 292 276 265 229 227 248 260 274 273 257 239 230 210 188 183 181
243 287 311 344 8 352 348 347 357 1 359 344 327 318 320 320 314 303 295 297 298 305 312 312 35 322 328 325 305 287 258 235 247 258 264 268 266 247 222 210 196 188 185
271 300 342 356 356 349 355 353 353 353 347 328 317 319 315 306 296 301 324 332 323 319 317 321 324 304 303 303 302 305 292 258 244 251 260 268 276 285 268 221 223 191 168
336 353 359 2 358 357 360 353 348 341 333 325 319 311 295 301 316 329 326 311 300 300 304 316 311 294 279 273 269 283 283 284 267 257 258 270 280 294 304 291 255 212 181
0 359 1 357 359 358 356 348 343 337 331 322 311 296 317 332 321 312 302 304 311 312 320 325 312 296 278 262 251 246 251 254 261 263 262 260 271 293 310 316 303 232 211
2 1 355 351 353 346 346 346 341 336 328 325 328 328 334 316 310 310 308 303 301 303 305 301 299 295 286 271 251 242 236 222 222 226 239 250 261 285 294 305 308 291 246
359 350 347 350 346 340 342 343 340 336 332 332 331 324 316 313 306 299 301 308 310 310 305 301 297 294 289 280 265 251 249 234 221 213 215 222 219 243 269 286 299 296 283
352 345 345 347 341 338 339 338 338 330 330 331 325 317 313 309 306 307 308 304 300 299 299 298 296 292 289 285 277 264 254 242 231 220 212 211 208 209 225 246 265 279 288
353 346 346 342 335 336 334 331 326 326 327 323 319 315 311 308 305 303 300 297 294 291 291 289 288 287 287 285 280 273 265 255 244 231 219 210 202 202 199 207 224 245 267
353 345 341 334 332 330 328 323 322 324 321 321 315 309 306 304 302 299 296 295 293 291 287 286 284 282 281 279 276 272 268 260 252 242 228 216 206 203 196 199 204 208 220
344 340 335 329 328 327 324 318 318 319 319 314 309 305 303 302 299 297 296 294 292 292 291 289 285 280 277 269 265 262 264 259 253 248 237 227 216 209 197 195 192 192 194
340 334 331 329 326 323 317 315 315 317 317 310 307 306 304 303 301 299 296 295 294 293 290 284 282 278 276 281 287 282 278 274 264 254 246 241 226 216 200 195 190 188 192
336 334 333 325 320 314 313 313 316 318 316 311 310 308 308 308 306 305 303 299 298 295 289 283 279 275 270 269 268 266 263 261 258 249 242 243 232 208 197 195 193 194 196
338 335 327 321 318 321 321 322 318 318 318 315 314 313 311 309 306 303 299 297 295 293 289 283 279 275 271 265 257 256 257 255 248 241 234 234 244 223 197 189 194 198 198
337 327 322 320 319 317 324 322 315 318 318 317 317 316 313 307 304 301 299 298 295 292 288 284 278 275 273 265 256 247 253 247 244 236 232 227 227 227 203 191 192 196 197
329 324 321 320 318 322 325 317 316 319 320 322 320 314 308 304 302 298 295 295 293 290 290 286 282 280 277 268 252 239 245 244 240 234 234 228 220 211 194 192 192 198 197
327 326 326 322 322 322 323 317 317 320 325 322 316 311 306 302 297 293 294 294 294 293 291 288 286 282 277 269 248 231 233 236 231 227 222 220 202 197 194 193 192 196 191
330 332 325 322 323 326 328 321 322 327 323 318 314 311 307 305 302 301 298 295 293 293 291 290 293 289 283 270 251 225 224 242 239 227 217 211 194 197 193 191 188 180 181
331 328 325 323 326 332 332 325 329 327 323 318 313 310 308 305 300 297 297 298 297 296 299 303 305 308 306 283 230 206 206 216 240 23 59 211 190 189 195 200 179 174 194
327 327 326 324 326 332 334 333 330 328 323 316 313 311 308 306 303 300 297 297 300 306 315 317 319 324 325 325 282 192 185 184 193 199 172 175 184 200 205 182 185 200 209
324 326 323 325 327 333 333 335 334 330 321 316 313 311 308 305 303 301 295 294 297 300 295 312 322 329 334 6 18 19 49 130 151 195 186 185 181 201 208 198 191 202 211
324 324 326 326 327 329 330 334 334 328 320 315 314 311 307 304 303 302 304 289 272 254 242 249 285 304 316 341 11 52 59 47 41 213 209 211 210 209 206 203 200 201 208